Weather in Mitrofanovka

Russia / Voronezh Oblast     51°00′07″N   40°21′59″E
В апреле 2022 года жителям России запретили посещать сайт meteo.paraplan.net по решению Генеральной прокуратуры. Аудитория сайта уменьшилась в 10 раз. Владельцы сайта не видят смысла в поддержке погодного сервера в таких условиях. Сайт будет закрыт в октябре.
temp.,
°C
wind,
m/s
gust,
m/s
humid.,
%
clouds,
%
prec.,
mm/h
press.,
hPa
HPBL,
m
3 october, mon
mon300:00+18sse71774100 1.0 999915
03:00+17sse71572100 1.6 998951
06:00+15s81391100 3.6 996881
09:00+11sw81081100 8.1 10021142
12:00+11sw8137190 0.1 10061443
15:00+13ssw7137134 0.1 10081501
18:00+12ssw6117360 0.3 1010455
21:00+12s5127131 0.4 1012404
4 october, tue
tue400:00+10s5117579 0.1 1012301
03:00+10sse5127696 0.1 1013276
06:00+9sse410775 0.0 1014198
09:00+13sse6126894 0.0 1014587
12:00+16s8135681 0.1 10141695
15:00+17s8115420 0.4 10141713
18:00+15s6126756 0.9 1015520
21:00+12s411798 1.9 1016284
5 october, wed
wed500:00+11ssw3587100 0.2 1016139
03:00+11ssw3882100 0.2 1016262
06:00+8sw4108323 0.0 1017275
09:00+11sw610725 0.0 1018682
12:00+13wsw796187 0.1 10181443
15:00+13w61060100 0.1 10181675
18:00+10w5979100 0.2 1020570
21:00+8wsw498269 0.2 1021263
6 october, thu
thu600:00+7w398892 0.0 1021279
03:00+6w388896 0.0 1022249
06:00+6wsw37925 0.0 1023192
09:00+8wsw4883100 0.0 1023354
12:00+11wsw697092 0.0 1022696
15:00+14w686664 0.0 1022893
18:00+12wsw497760 0.0 1022189
21:00+11wsw41178100 0.0 1022307
7 october, fri
fri700:00+12wsw4107872 0.0 1022336
03:00+9wsw49905 0.0 1021189
06:00+8wsw39955 0.0 1021188
09:00+12wnw46822 0.0 1022337
12:00+16wnw45630 0.0 1023898
15:00+17nw45520 0.0 10221187
18:00+13nw33630 0.0 102429
21:00+10nnw22730 0.0 102522